GW5880 Weather Reports


time (UTC)temp
C
wind
direction
speed
KPH
gust
KPH
rain 1hr
cm
rain 24hr
cm
rain mn
cm
humidity
%
barometer
mb
20260504201920 21 255 9.7 16.1 0.00 0.00 0.00 32 1005.6
20260504201418 21 225 9.7 29.0 0.00 0.00 0.00 29 1006.0
20260504200915 21 248 8.0 22.5 0.00 0.00 0.00 33 1005.9
20260504200411 21 231 8.0 16.1 0.00 0.00 0.00 30 1005.9
20260504195908 21 236 8.0 20.9 0.00 0.00 0.00 32 1005.8
20260504195404 22 246 17.7 20.9 0.00 0.00 0.00 32 1006.0
20260504194901 21 254 9.7 16.1 0.00 0.00 0.00 32 1006.1
20260504194356 21 311 14.5 17.7 0.00 0.00 0.00 30 1006.2
20260504193853 21 234 11.3 30.6 0.00 0.00 0.00 31 1006.4
20260504193350 21 329 11.3 24.1 0.00 0.00 0.00 31 1006.5
20260504192849 21 259 12.9 20.9 0.00 0.00 0.00 33 1006.4
20260504192346 20 199 4.8 16.1 0.00 0.00 0.00 34 1006.4
20260504191844 21 228 27.4 40.2 0.00 0.00 0.00 33 1006.6
20260504191342 21 251 14.5 24.1 0.00 0.00 0.00 33 1006.7
20260504190837 21 305 14.5 24.1 0.00 0.00 0.00 33 1006.8
20260504190333 20 232 12.9 22.5 0.00 0.00 0.00 37 1006.7
20260504185830 21 236 19.3 30.6 0.00 0.00 0.00 37 1006.8
20260504185327 20 292 9.7 14.5 0.00 0.00 0.00 34 1006.7
20260504184823 20 283 16.1 22.5 0.00 0.00 0.00 34 1006.9
20260504184319 19 269 12.9 29.0 0.00 0.00 0.00 37 1006.7
20260504183815 20 255 17.7 35.4 0.00 0.00 0.00 36 1006.9
20260504183312 20 227 27.4 30.6 0.00 0.00 0.00 35 1006.9
20260504182810 20 225 17.7 24.1 0.00 0.00 0.00 36 1007.0
20260504182308 19 232 9.7 16.1 0.00 0.00 0.00 39 1007.0
20260504181805 18 257 27.4 37.0 0.00 0.00 0.00 40 1007.0
20260504181302 18 225 17.7 24.1 0.00 0.00 0.00 40 1007.0
20260504180801 18 245 20.9 29.0 0.00 0.00 0.00 39 1006.9
20260504180259 19 236 27.4 30.6 0.00 0.00 0.00 39 1006.9
20260504175756 20 217 19.3 30.6 0.00 0.00 0.00 41 1007.2
20260504175253 18 244 12.9 17.7 0.00 0.00 0.00 42 1007.3
20260504174751 19 237 22.5 27.4 0.00 0.00 0.00 40 1007.2
20260504174249 18 134 20.9 29.0 0.00 0.00 0.00 42 1007.1
20260504173745 19 228 24.1 35.4 0.00 0.00 0.00 39 1007.1
20260504173242 18 216 20.9 22.5 0.00 0.00 0.00 42 1007.1
20260504172739 18 218 16.1 33.8 0.00 0.00 0.00 42 1007.1
20260504172235 18 209 14.5 27.4 0.00 0.00 0.00 40 1007.3
20260504171731 18 233 16.1 20.9 0.00 0.00 0.00 43 1007.2
20260504171228 18 209 19.3 27.4 0.00 0.00 0.00 43 1007.4
20260504170725 18 238 22.5 29.0 0.00 0.00 0.00 43 1007.4
20260504170223 18 227 17.7 35.4 0.00 0.00 0.00 43 1007.4
20260504160141 16 227 27.4 30.6 0.00 0.00 0.00 48 1008.3
20260504151108 15 239 22.5 25.7 0.00 0.00 0.00 46 1008.4
20260504150606 15 205 16.1 20.9 0.00 0.00 0.00 49 1008.5
20260504150103 14 223 20.9 25.7 0.00 0.00 0.00 49 1008.7
20260504141032 13 238 22.5 33.8 0.00 0.00 0.00 49 1008.8
20260504140528 12 239 14.5 25.7 0.00 0.00 0.00 50 1008.7
20260504130453 11 251 16.1 25.7 0.00 0.00 0.00 52 1009.3
20260504110340 7 158 8.0 12.9 0.00 0.00 0.00 57 1009.6
20260504100257 8 204 25.7 33.8 0.00 0.00 0.00 54 1009.3
20260504081650 8 227 11.3 14.5 0.00 0.00 0.00 55 1009.9
20260504081147 8 250 11.3 16.1 0.00 0.00 0.00 55 1009.6
20260504080643 8 228 12.9 17.7 0.00 0.00 0.00 54 1009.9
20260504080140 8 241 11.3 16.1 0.00 0.00 0.00 55 1009.9
20260504070108 7 238 8.0 12.9 0.00 0.00 0.00 57 1010.0
20260504050456 9 198 14.5 17.7 0.00 0.00 0.00 49 1010.4
20260504045953 9 222 8.0 17.7 0.00 0.00 0.00 50 1010.4
20260504045449 9 206 16.1 20.9 0.00 0.00 0.00 49 1010.4
20260504044945 9 216 16.1 17.7 0.00 0.00 0.00 49 1010.4
20260504044443 9 230 16.1 20.9 0.00 0.00 0.00 49 1010.4
20260504043940 9 227 11.3 17.7 0.00 0.00 0.00 49 1010.5
20260504043437 10 194 6.4 14.5 0.00 0.00 0.00 48 1010.5
20260504042934 10 221 9.7 16.1 0.00 0.00 0.00 48 1010.4
20260504042431 10 207 11.3 16.1 0.00 0.00 0.00 48 1010.6
20260504041927 10 222 11.3 16.1 0.00 0.00 0.00 48 1010.5
20260504041424 10 201 11.3 14.5 0.00 0.00 0.00 48 1010.5
20260504040920 10 214 9.7 14.5 0.00 0.00 0.00 48 1010.6
20260504040418 10 213 9.7 12.9 0.00 0.00 0.00 48 1010.6
20260504035913 10 207 11.3 12.9 0.00 0.00 0.00 48 1010.4
20260504035411 10 218 6.4 11.3 0.00 0.00 0.00 47 1010.4
20260504034908 10 218 6.4 11.3 0.00 0.00 0.00 48 1010.6
20260504034405 10 226 11.3 14.5 0.00 0.00 0.00 46 1010.6
20260504033902 10 222 9.7 12.9 0.00 0.00 0.00 46 1010.5
20260504033400 10 204 8.0 11.3 0.00 0.00 0.00 46 1010.6
20260504032856 10 218 11.3 14.5 0.00 0.00 0.00 44 1010.7
20260504032353 10 212 9.7 12.9 0.00 0.00 0.00 44 1010.5
20260504031850 10 201 8.0 11.3 0.00 0.00 0.00 43 1010.5
20260504031347 10 202 9.7 11.3 0.00 0.00 0.00 43 1010.7
20260504030843 10 200 9.7 11.3 0.00 0.00 0.00 44 1010.8
20260504030341 10 199 6.4 11.3 0.00 0.00 0.00 45 1010.8
20260504025837 10 196 6.4 6.4 0.00 0.00 0.00 44 1010.7
20260504025334 10 208 6.4 6.4 0.00 0.00 0.00 45 1010.8
20260504024831 10 221 6.4 9.7 0.00 0.00 0.00 45 1010.9
20260504024327 10 226 6.4 11.3 0.00 0.00 0.00 44 1011.1
20260504023824 10 231 6.4 12.9 0.00 0.00 0.00 44 1011.2
20260504023321 10 225 4.8 11.3 0.00 0.00 0.00 43 1011.1
20260504022816 10 248 3.2 6.4 0.00 0.00 0.00 43 1011.0
20260504022314 10 220 6.4 6.4 0.00 0.00 0.00 43 1010.9
20260504021810 10 306 4.8 9.7 0.00 0.00 0.00 43 1010.9
20260504021308 10 256 1.6 4.8 0.00 0.00 0.00 44 1010.8
20260504020804 10 264 9.7 12.9 0.00 0.00 0.00 42 1010.8
20260504020301 10 283 3.2 6.4 0.00 0.00 0.00 44 1010.9
20260504015757 11 244 1.6 6.4 0.00 0.00 0.00 44 1010.9
20260504015253 11 266 3.2 9.7 0.00 0.00 0.00 43 1010.8
20260504014749 11 246 12.9 16.1 0.00 0.00 0.00 42 1011.0
20260504014246 11 350 3.2 9.7 0.00 0.00 0.00 42 1010.8
20260504013744 11 321 9.7 17.7 0.00 0.00 0.00 41 1011.0
20260504013241 11 300 12.9 20.9 0.00 0.00 0.00 42 1010.9
20260504012737 11 337 6.4 9.7 0.00 0.00 0.00 43 1011.1
20260504012235 11 302 8.0 12.9 0.00 0.00 0.00 42 1010.8
20260504011732 11 290 9.7 14.5 0.00 0.00 0.00 42 1010.9
20260504011229 11 251 4.8 12.9 0.00 0.00 0.00 42 1010.9
20260504010725 11 291 9.7 16.1 0.00 0.00 0.00 42 1010.8
20260504010220 11 283 16.1 25.7 0.00 0.00 0.00 41 1010.8
20260504005717 11 310 14.5 17.7 0.00 0.00 0.00 40 1010.9
20260504005215 11 287 12.9 20.9 0.00 0.00 0.00 41 1010.9
20260504004712 11 274 9.7 12.9 0.00 0.00 0.00 41 1010.8
20260504004209 11 291 14.5 22.5 0.00 0.00 0.00 39 1010.7
20260504003706 11 301 17.7 30.6 0.00 0.00 0.00 38 1010.8
20260504003203 11 300 16.1 22.5 0.00 0.00 0.00 41 1010.7
20260504002659 11 316 9.7 25.7 0.00 0.00 0.00 41 1010.6
20260504002157 11 298 11.3 14.5 0.00 0.00 0.00 41 1010.6
20260504001655 11 306 14.5 16.1 0.00 0.00 0.00 42 1010.3
20260504001150 11 282 8.0 12.9 0.00 0.00 0.00 44 1010.3
20260504000647 11 274 4.8 11.3 0.00 0.00 0.00 43 1010.4
20260504000145 11 300 4.8 9.7 0.00 0.00 0.00 42 1010.4
20260503235643 11 282 8.0 11.3 0.00 0.00 0.00 43 1010.0
20260503235139 11 294 3.2 4.8 0.00 0.00 0.00 44 1010.0
20260503234638 11 263 3.2 6.4 0.00 0.00 0.00 43 1010.2
20260503234135 11 253 6.4 11.3 0.00 0.00 0.00 42 1010.2
20260503233632 11 246 3.2 3.2 0.00 0.00 0.00 42 1010.3
20260503233127 11 232 1.6 3.2 0.00 0.00 0.00 43 1010.2
20260503232625 11 267 3.2 11.3 0.00 0.00 0.00 43 1010.4
20260503232122 11 246 3.2 6.4 0.00 0.00 0.00 42 1010.1
20260503231620 11 306 11.3 14.5 0.00 0.00 0.00 42 1010.1
20260503231116 11 298 8.0 17.7 0.00 0.00 0.00 41 1010.3
20260503230613 11 317 16.1 24.1 0.00 0.00 0.00 41 1010.5
20260503230110 11 317 16.1 30.6 0.00 0.00 0.00 40 1010.2
20260503225608 11 305 22.5 30.6 0.00 0.00 0.00 40 1010.3
20260503225107 12 27 17.7 30.6 0.00 0.00 0.00 40 1010.2
20260503224605 12 285 16.1 30.6 0.00 0.00 0.00 39 1010.2
20260503224103 12 300 16.1 20.9 0.00 0.00 0.00 41 1009.9
20260503223601 12 325 8.0 17.7 0.00 0.00 0.00 40 1009.9
20260503223056 12 229 4.8 12.9 0.00 0.00 0.00 42 1009.9
20260503222554 12 271 11.3 14.5 0.00 0.00 0.00 42 1010.0
20260503222052 12 215 4.8 14.5 0.00 0.00 0.00 42 1009.9
20260503221550 12 338 9.7 14.5 0.00 0.00 0.00 42 1010.1
20260503221047 11 282 8.0 14.5 0.00 0.00 0.00 42 1010.1
20260503220543 11 311 17.7 25.7 0.00 0.00 0.00 40 1010.2
20260503220040 11 22 8.0 14.5 0.00 0.00 0.00 42 1010.1
20260503215537 11 294 9.7 16.1 0.00 0.00 0.00 42 1010.0
20260503215034 12 265 4.8 22.5 0.00 0.00 0.00 41 1010.1
20260503214532 12 263 14.5 17.7 0.00 0.00 0.00 40 1010.1
20260503214029 12 302 4.8 25.7 0.00 0.00 0.00 41 1010.1
20260503213527 11 255 8.0 17.7 0.00 0.00 0.00 42 1010.1
20260503213024 12 289 14.5 20.9 0.00 0.00 0.00 40 1010.1
20260503212521 12 289 6.4 22.5 0.00 0.00 0.00 41 1009.9
20260503212018 12 311 11.3 22.5 0.00 0.00 0.00 41 1009.9
20260503211515 12 292 9.7 22.5 0.00 0.00 0.00 41 1009.7
20260503211011 12 250 6.4 16.1 0.00 0.00 0.00 42 1010.0
20260503210508 12 312 12.9 29.0 0.00 0.00 0.00 39 1010.0
20260503210003 13 302 6.4 25.7 0.00 0.00 0.00 39 1009.9
20260503205500 12 262 19.3 33.8 0.00 0.00 0.00 39 1010.0
20260503204956 12 296 14.5 27.4 0.00 0.00 0.00 40 1010.2
20260503204454 12 233 4.8 14.5 0.00 0.00 0.00 42 1010.2
20260503203950 12 9 9.7 20.9 0.00 0.00 0.00 43 1010.4
20260503203448 11 275 12.9 20.9 0.00 0.00 0.00 41 1010.4
20260503202944 11 308 12.9 22.5 0.00 0.00 0.00 41 1010.3
20260503202443 11 269 14.5 17.7 0.00 0.00 0.00 40 1010.4